,,Stat5,,Stat1,,Stat2,,Stat3,,Stat4,,Wind1,,Wind1,
time,status,PA1M_AVG,status,PR1M_SUM,status,RH1M_AVG,status,SR1M_AVG,status,TA1M_AVG,status,W1dAve1m,status,W1sAve1m,
2001-05-01, 00:00:00,VALID,918.836,VALID,0,VALID,98.8482,VALID,0.0339617,VALID,20.0581,VALID,133,VALID,0.679497,
2001-05-01, 00:01:00,VALID,918.843,VALID,0,VALID,98.8698,VALID,0.0509425,VALID,20.0484,VALID,135,VALID,0.661675,
2001-05-01, 00:02:00,VALID,918.839,VALID,0,VALID,98.899,VALID,0.0849042,VALID,20.0454,VALID,135,VALID,0.264106,
2001-05-01, 00:03:00,VALID,918.846,VALID,0,VALID,98.9219,VALID,0.0849042,VALID,20.0387,VALID,121,VALID,0.263302,
2001-05-01, 00:04:00,VALID,918.816,VALID,0,VALID,98.941,VALID,0.0679233,VALID,20.062,VALID,98,VALID,0.450658,
2001-05-01, 00:05:00,VALID,918.818,VALID,0,VALID,98.9601,VALID,0.0849042,VALID,20.0521,VALID,93,VALID,0.110197,
2001-05-01, 00:06:00,VALID,918.819,VALID,0,VALID,98.9715,VALID,0.0509425,VALID,20.0454,VALID,93,VALID,0,
2001-05-01, 00:07:00,VALID,918.803,VALID,0,VALID,98.9703,VALID,0.0849042,VALID,20.0292,VALID,93,VALID,0,
2001-05-01, 00:08:00,VALID,918.791,VALID,0,VALID,98.9639,VALID,0.101885,VALID,19.9999,VALID,93,VALID,0,
2001-05-01, 00:09:00,VALID,918.77,VALID,0,VALID,98.9741,VALID,0.0509425,VALID,20.0104,VALID,111,VALID,0,
2001-05-01, 00:10:00,VALID,918.747,VALID,0,VALID,98.9639,VALID,0.0509425,VALID,20.0069,VALID,122,VALID,0,
2001-05-01, 00:11:00,VALID,918.737,VALID,0,VALID,98.9652,VALID,0.0849042,VALID,19.9808,VALID,122,VALID,0.00102796,
2001-05-01, 00:12:00,VALID,918.712,VALID,0,VALID,98.9601,VALID,0.0509425,VALID,19.9679,VALID,122,VALID,0.0434696,
2001-05-01, 00:13:00,VALID,918.7,VALID,0,VALID,98.9944,VALID,0.0849042,VALID,19.9711,VALID,122,VALID,0.0172697,
2001-05-01, 00:14:00,VALID,918.689,VALID,0,VALID,99.0148,VALID,0.101885,VALID,19.9741,VALID,122,VALID,0.00160256,
2001-05-01, 00:15:00,VALID,918.67,VALID,0,VALID,99.0364,VALID,0.0849042,VALID,19.9805,VALID,122,VALID,0,
2001-05-01, 00:16:00,VALID,918.692,VALID,0,VALID,99.0097,VALID,0.101885,VALID,19.9609,VALID,149,VALID,0.0560897,
2001-05-01, 00:17:00,VALID,918.677,VALID,0,VALID,98.9842,VALID,0.101885,VALID,19.9482,VALID,210,VALID,0.0335115,
2001-05-01, 00:18:00,VALID,918.675,VALID,0,VALID,98.9982,VALID,0.101885,VALID,19.9226,VALID,210,VALID,0,
2001-05-01, 00:19:00,VALID,918.673,VALID,0,VALID,99.0008,VALID,0.0339617,VALID,19.9167,VALID,210,VALID,0,
2001-05-01, 00:20:00,VALID,918.666,VALID,0,VALID,98.9982,VALID,0.101885,VALID,19.8809,VALID,208,VALID,0,
2001-05-01, 00:21:00,VALID,918.648,VALID,0,VALID,99.0173,VALID,0.101885,VALID,19.8709,VALID,171,VALID,0.257813,
2001-05-01, 00:22:00,VALID,918.641,VALID,0,VALID,99.03,VALID,0.101885,VALID,19.8612,VALID,154,VALID,0.287861,
2001-05-01, 00:23:00,VALID,918.624,VALID,0,VALID,99.0504,VALID,0.0509425,VALID,19.8523,VALID,153,VALID,0.0752467,
2001-05-01, 00:24:00,VALID,918.602,VALID,0,VALID,99.0593,VALID,-0.0169808,VALID,19.8603,VALID,153,VALID,0,
2001-05-01, 00:25:00,VALID,918.586,VALID,0,VALID,99.0733,VALID,-0.0849042,VALID,19.8471,VALID,153,VALID,0,
2001-05-01, 00:26:00,VALID,918.58,VALID,0,VALID,99.0834,VALID,-0.0679233,VALID,19.8434,VALID,153,VALID,0.00641026,
2001-05-01, 00:27:00,VALID,918.577,VALID,0,VALID,99.0707,VALID,-0.0339617,VALID,19.8312,VALID,163,VALID,0.063528,
2001-05-01, 00:28:00,VALID,918.595,VALID,0,VALID,99.1,VALID,0,VALID,19.8242,VALID,270,VALID,0.0608108,
2001-05-01, 00:29:00,VALID,918.589,VALID,0,VALID,99.0961,VALID,0,VALID,19.8277,VALID,270,VALID,0.00657895,
2001-05-01, 00:30:00,VALID,918.588,VALID,0,VALID,99.1228,VALID,-0.0509425,VALID,19.8411,VALID,270,VALID,0,
2001-05-01, 00:31:00,VALID,918.599,VALID,0,VALID,99.1228,VALID,-0.0679233,VALID,19.8471,VALID,270,VALID,0,
2001-05-01, 00:32:00,VALID,918.604,VALID,0,VALID,99.1267,VALID,-0.0509425,VALID,19.8536,VALID,270,VALID,0,
2001-05-01, 00:33:00,VALID,918.62,VALID,0,VALID,99.1254,VALID,-0.0509425,VALID,19.8538,VALID,268,VALID,0,
2001-05-01, 00:34:00,VALID,918.623,VALID,0,VALID,99.1279,VALID,-0.0339617,VALID,19.8371,VALID,268,VALID,0,
2001-05-01, 00:35:00,VALID,918.627,VALID,0,VALID,99.1368,VALID,-0.0509425,VALID,19.8439,VALID,268,VALID,0,
2001-05-01, 00:36:00,VALID,918.641,VALID,0,VALID,99.1318,VALID,-0.0169808,VALID,19.8376,VALID,268,VALID,0,
2001-05-01, 00:37:00,VALID,918.648,VALID,0,VALID,99.1292,VALID,0,VALID,19.821,VALID,268,VALID,0,
2001-05-01, 00:38:00,VALID,918.641,VALID,0,VALID,99.1178,VALID,0,VALID,19.8178,VALID,268,VALID,0,
2001-05-01, 00:39:00,VALID,918.647,VALID,0,VALID,99.1241,VALID,0,VALID,19.7954,VALID,268,VALID,0,
2001-05-01, 00:40:00,VALID,918.64,VALID,0,VALID,99.1165,VALID,-0.0169808,VALID,19.7887,VALID,268,VALID,0,
2001-05-01, 00:41:00,VALID,918.626,VALID,0,VALID,99.1139,VALID,-0.0169808,VALID,19.7857,VALID,268,VALID,0,
2001-05-01, 00:42:00,VALID,918.598,VALID,0,VALID,99.1241,VALID,0,VALID,19.7852,VALID,261,VALID,0.100361,
2001-05-01, 00:43:00,VALID,918.56,VALID,0,VALID,99.1241,VALID,-0.0679233,VALID,19.773,VALID,154,VALID,0.328947,
2001-05-01, 00:44:00,VALID,918.525,VALID,0,VALID,99.1203,VALID,0,VALID,19.7564,VALID,152,VALID,0.39363,
2001-05-01, 00:45:00,VALID,918.487,VALID,0,VALID,99.1216,VALID,-0.0509425,VALID,19.7469,VALID,150,VALID,0.378289,
2001-05-01, 00:46:00,VALID,918.444,VALID,0,VALID,99.1241,VALID,-0.0169808,VALID,19.7372,VALID,150,VALID,0.072516,
2001-05-01, 00:47:00,VALID,918.399,VALID,0,VALID,99.1343,VALID,0,VALID,19.7372,VALID,150,VALID,0,
2001-05-01, 00:48:00,VALID,918.364,VALID,0,VALID,99.1394,VALID,-0.0169808,VALID,19.7335,VALID,150,VALID,0,
2001-05-01, 00:49:00,VALID,918.329,VALID,0,VALID,99.1318,VALID,-0.0169808,VALID,19.7241,VALID,150,VALID,0,
2001-05-01, 00:50:00,VALID,918.314,VALID,0,VALID,99.1152,VALID,-0.0339617,VALID,19.7114,VALID,150,VALID,0,
2001-05-01, 00:51:00,VALID,918.305,VALID,0,VALID,99.1139,VALID,0,VALID,19.695,VALID,150,VALID,0,
2001-05-01, 00:52:00,VALID,918.312,VALID,0,VALID,99.1267,VALID,-0.0509425,VALID,19.7022,VALID,150,VALID,0,
2001-05-01, 00:53:00,VALID,918.31,VALID,0,VALID,99.1139,VALID,-0.0339617,VALID,19.6756,VALID,147,VALID,0.190378,
2001-05-01, 00:54:00,VALID,918.33,VALID,0,VALID,99.0936,VALID,0.0679233,VALID,19.6453,VALID,126,VALID,0.686498,
2001-05-01, 00:55:00,VALID,918.352,VALID,0,VALID,99.0809,VALID,0.0849042,VALID,19.6262,VALID,123,VALID,0.837788,
2001-05-01, 00:56:00,VALID,918.365,VALID,0,VALID,99.0847,VALID,0.101885,VALID,19.6036,VALID,122,VALID,0.829327,
2001-05-01, 00:57:00,VALID,918.391,VALID,0,VALID,99.0961,VALID,0.0509425,VALID,19.6001,VALID,125,VALID,0.742599,
2001-05-01, 00:58:00,VALID,918.395,VALID,0,VALID,99.0758,VALID,0.0509425,VALID,19.6001,VALID,132,VALID,0.655849,
2001-05-01, 00:59:00,VALID,918.408,VALID,0,VALID,99.0555,VALID,0.101885,VALID,19.5611,VALID,146,VALID,0.607319,
2001-05-01, 01:00:00,VALID,918.395,VALID,0,VALID,99.0211,VALID,0.0679233,VALID,19.5486,VALID,155,VALID,0.527244,
2001-05-01, 01:01:00,VALID,918.372,VALID,0,VALID,99.0097,VALID,0.0509425,VALID,19.526,VALID,164,VALID,0.562706,
2001-05-01, 01:02:00,VALID,918.355,VALID,0,VALID,99.0173,VALID,0.0849042,VALID,19.5193,VALID,191,VALID,0.586338,
2001-05-01, 01:03:00,VALID,918.344,VALID,0,VALID,99.0109,VALID,0.101885,VALID,19.5163,VALID,196,VALID,0.79852,
2001-05-01, 01:04:00,VALID,918.316,VALID,0,VALID,99.0008,VALID,0.0679233,VALID,19.497,VALID,207,VALID,0.797877,
2001-05-01, 01:05:00,VALID,918.301,VALID,0,VALID,99.0237,VALID,0.0509425,VALID,19.5037,VALID,208,VALID,0.849918,
2001-05-01, 01:06:00,VALID,918.28,VALID,0,VALID,99.0389,VALID,0.0849042,VALID,19.5069,VALID,201,VALID,0.879207,
2001-05-01, 01:07:00,VALID,918.267,VALID,0,VALID,99.0669,VALID,0.0509425,VALID,19.5062,VALID,198,VALID,0.861637,
2001-05-01, 01:08:00,VALID,918.271,VALID,0,VALID,99.0847,VALID,0.0509425,VALID,19.5193,VALID,188,VALID,0.534856,
2001-05-01, 01:09:00,VALID,918.267,VALID,0,VALID,99.0885,VALID,0,VALID,19.5275,VALID,186,VALID,0.187089,
2001-05-01, 01:10:00,VALID,918.254,VALID,0,VALID,99.1089,VALID,-0.0339617,VALID,19.5469,VALID,191,VALID,0.527845,
2001-05-01, 01:11:00,VALID,918.246,VALID,0,VALID,99.1076,VALID,-0.0509425,VALID,19.5601,VALID,181,VALID,0.364515,
2001-05-01, 01:12:00,VALID,918.256,VALID,0,VALID,99.1241,VALID,-0.0849042,VALID,19.5797,VALID,138,VALID,0.429487,
2001-05-01, 01:13:00,VALID,918.258,VALID,0,VALID,99.119,VALID,-0.0509425,VALID,19.5762,VALID,116,VALID,0.468133,
2001-05-01, 01:14:00,VALID,918.254,VALID,0,VALID,99.1165,VALID,-0.0169808,VALID,19.5857,VALID,127,VALID,0.511418,
2001-05-01, 01:15:00,VALID,918.244,VALID,0,VALID,99.1292,VALID,0,VALID,19.5924,VALID,132,VALID,0.574219,
2001-05-01, 01:16:00,VALID,918.226,VALID,0,VALID,99.1228,VALID,-0.0169808,VALID,19.6021,VALID,152,VALID,0.526042,
2001-05-01, 01:17:00,VALID,918.222,VALID,0,VALID,99.1368,VALID,-0.0339617,VALID,19.6078,VALID,148,VALID,0.109375,
2001-05-01, 01:18:00,VALID,918.233,VALID,0,VALID,99.1254,VALID,-0.0339617,VALID,19.615,VALID,148,VALID,0,
2001-05-01, 01:19:00,VALID,918.221,VALID,0,VALID,99.1178,VALID,-0.0509425,VALID,19.615,VALID,148,VALID,0,
2001-05-01, 01:20:00,VALID,918.213,VALID,0,VALID,99.1101,VALID,-0.0509425,VALID,19.605,VALID,148,VALID,0,
2001-05-01, 01:21:00,VALID,918.198,VALID,0,VALID,99.105,VALID,-0.0339617,VALID,19.6053,VALID,148,VALID,0.0185033,
2001-05-01, 01:22:00,VALID,918.175,VALID,0,VALID,99.1076,VALID,-0.0169808,VALID,19.6088,VALID,148,VALID,0.0919471,
2001-05-01, 01:23:00,VALID,918.155,VALID,0,VALID,99.1025,VALID,-0.0509425,VALID,19.5921,VALID,148,VALID,0.00349507,
2001-05-01, 01:24:00,VALID,918.128,VALID,0,VALID,99.1,VALID,-0.0849042,VALID,19.618,VALID,148,VALID,0,
2001-05-01, 01:25:00,VALID,918.11,VALID,0,VALID,99.0974,VALID,-0.0849042,VALID,19.6349,VALID,148,VALID,0,
2001-05-01, 01:26:00,VALID,918.11,VALID,0,VALID,99.0923,VALID,-0.101885,VALID,19.615,VALID,148,VALID,0.0665064,
2001-05-01, 01:27:00,VALID,918.099,VALID,0,VALID,99.086,VALID,-0.0849042,VALID,19.6177,VALID,148,VALID,0,
2001-05-01, 01:28:00,VALID,918.077,VALID,0,VALID,99.0885,VALID,-0.0849042,VALID,19.6244,VALID,185,VALID,0.0352564,
2001-05-01, 01:29:00,VALID,918.077,VALID,0,VALID,99.0949,VALID,-0.0849042,VALID,19.6371,VALID,145,VALID,0.231291,
2001-05-01, 01:30:00,VALID,918.061,VALID,0,VALID,99.0669,VALID,-0.0849042,VALID,19.6339,VALID,104,VALID,0.434095,
2001-05-01, 01:31:00,VALID,918.065,VALID,0,VALID,99.0237,VALID,-0.0849042,VALID,19.5889,VALID,96,VALID,0.021176,
2001-05-01, 01:32:00,VALID,918.082,VALID,0,VALID,99.0059,VALID,-0.0509425,VALID,19.5496,VALID,96,VALID,0.00120192,
2001-05-01, 01:33:00,VALID,918.097,VALID,0,VALID,99.0059,VALID,-0.0509425,VALID,19.5593,VALID,96,VALID,0.0133635,
2001-05-01, 01:34:00,VALID,918.091,VALID,0,VALID,99.03,VALID,-0.0849042,VALID,19.5655,VALID,96,VALID,0,
2001-05-01, 01:35:00,VALID,918.079,VALID,0,VALID,99.0555,VALID,-0.0849042,VALID,19.5894,VALID,96,VALID,0.000411184,
2001-05-01, 01:36:00,VALID,918.07,VALID,0,VALID,99.0631,VALID,-0.0509425,VALID,19.5953,VALID,96,VALID,0.136018,
2001-05-01, 01:37:00,VALID,918.052,VALID,0,VALID,99.0555,VALID,-0.0849042,VALID,19.5857,VALID,95,VALID,0.0857319,
2001-05-01, 01:38:00,VALID,918.033,VALID,0,VALID,99.0389,VALID,-0.0849042,VALID,19.5593,VALID,95,VALID,0.0236378,
2001-05-01, 01:39:00,VALID,918.001,VALID,0,VALID,99.0529,VALID,0,VALID,19.5551,VALID,95,VALID,0.236225,
2001-05-01, 01:40:00,VALID,917.979,VALID,0,VALID,99.0453,VALID,0.0339617,VALID,19.5551,VALID,93,VALID,0.427885,
2001-05-01, 01:41:00,VALID,917.963,VALID,0,VALID,99.0326,VALID,0.0169808,VALID,19.5424,VALID,91,VALID,0.568462,
2001-05-01, 01:42:00,VALID,917.96,VALID,0,VALID,99.016,VALID,0,VALID,19.5228,VALID,69,VALID,0.205128,
2001-05-01, 01:43:00,VALID,917.983,VALID,0,VALID,99.0389,VALID,0,VALID,19.5233,VALID,34,VALID,0.0742188,
2001-05-01, 01:44:00,VALID,917.973,VALID,0,VALID,99.0529,VALID,0.0169808,VALID,19.5424,VALID,300,VALID,0.0580929,
2001-05-01, 01:45:00,VALID,917.954,VALID,0,VALID,99.0745,VALID,0,VALID,19.5715,VALID,302,VALID,0.202714,
2001-05-01, 01:46:00,VALID,917.939,VALID,0,VALID,99.0783,VALID,0,VALID,19.5683,VALID,320,VALID,0.0520833,
2001-05-01, 01:47:00,VALID,917.91,VALID,0,VALID,99.086,VALID,0.0169808,VALID,19.5814,VALID,65,VALID,0.260896,
2001-05-01, 01:48:00,VALID,917.882,VALID,0,VALID,99.0771,VALID,0,VALID,19.572,VALID,57,VALID,0.304087,
2001-05-01, 01:49:00,VALID,917.893,VALID,0,VALID,99.086,VALID,0.0169808,VALID,19.5722,VALID,36,VALID,0.0627056,
2001-05-01, 01:50:00,VALID,917.891,VALID,0,VALID,99.0796,VALID,0,VALID,19.5755,VALID,35,VALID,0.137821,
2001-05-01, 01:51:00,VALID,917.905,VALID,0,VALID,99.0923,VALID,-0.0169808,VALID,19.5747,VALID,325,VALID,0.0908717,
2001-05-01, 01:52:00,VALID,917.91,VALID,0,VALID,99.0783,VALID,0,VALID,19.5655,VALID,21,VALID,0.439103,
2001-05-01, 01:53:00,VALID,917.899,VALID,0,VALID,99.0656,VALID,0,VALID,19.5556,VALID,345,VALID,0.245888,
2001-05-01, 01:54:00,VALID,917.882,VALID,0,VALID,99.0567,VALID,-0.0169808,VALID,19.569,VALID,35,VALID,0.216747,
2001-05-01, 01:55:00,VALID,917.866,VALID,0,VALID,99.0504,VALID,0,VALID,19.5713,VALID,104,VALID,0.212377,
2001-05-01, 01:56:00,VALID,917.85,VALID,0,VALID,99.0237,VALID,0,VALID,19.5645,VALID,89,VALID,0.483173,
2001-05-01, 01:57:00,VALID,917.834,VALID,0,VALID,98.9881,VALID,0.0169808,VALID,19.5553,VALID,86,VALID,0.634663,
2001-05-01, 01:58:00,VALID,917.857,VALID,0,VALID,98.9563,VALID,0,VALID,19.5516,VALID,90,VALID,0.17508,
2001-05-01, 01:59:00,VALID,917.855,VALID,0,VALID,98.9181,VALID,0,VALID,19.5486,VALID,85,VALID,0.378084,
2001-05-01, 02:00:00,VALID,917.853,VALID,0,VALID,98.8685,VALID,0,VALID,19.5558,VALID,80,VALID,0.84996,
2001-05-01, 02:01:00,VALID,917.849,VALID,0,VALID,98.8342,VALID,0,VALID,19.5457,VALID,87,VALID,0.585938,
2001-05-01, 02:02:00,VALID,917.841,VALID,0,VALID,98.7706,VALID,0,VALID,19.536,VALID,52,VALID,0.830329,
2001-05-01, 02:03:00,VALID,917.847,VALID,0,VALID,98.7439,VALID,0,VALID,19.5327,VALID,100,VALID,0.547081,
2001-05-01, 02:04:00,VALID,917.835,VALID,0,VALID,98.721,VALID,0,VALID,19.5397,VALID,96,VALID,0.663061,
2001-05-01, 02:05:00,VALID,917.835,VALID,0,VALID,98.6984,VALID,0,VALID,19.5298,VALID,67,VALID,0.406641,
2001-05-01, 02:06:00,VALID,917.835,VALID,0,VALID,98.6676,VALID,0.0169808,VALID,19.5298,VALID,70,VALID,0.103766,
2001-05-01, 02:07:00,VALID,917.848,VALID,0,VALID,98.6473,VALID,0,VALID,19.533,VALID,83,VALID,0.0269326,
2001-05-01, 02:08:00,VALID,917.86,VALID,0,VALID,98.6536,VALID,0,VALID,19.526,VALID,69,VALID,0.15605,
2001-05-01, 02:09:00,VALID,917.857,VALID,0,VALID,98.6676,VALID,0,VALID,19.5494,VALID,49,VALID,0.0888158,
2001-05-01, 02:10:00,VALID,917.854,VALID,0,VALID,98.7045,VALID,0.0169808,VALID,19.571,VALID,315,VALID,0.328526,
2001-05-01, 02:11:00,VALID,917.84,VALID,0,VALID,98.7477,VALID,0,VALID,19.6068,VALID,321,VALID,0.426192,
2001-05-01, 02:12:00,VALID,917.84,VALID,0,VALID,98.7935,VALID,0,VALID,19.6393,VALID,335,VALID,0.127003,
2001-05-01, 02:13:00,VALID,917.834,VALID,0,VALID,98.8062,VALID,0.0339617,VALID,19.6555,VALID,301,VALID,0.0583882,
2001-05-01, 02:14:00,VALID,917.819,VALID,0,VALID,98.8151,VALID,0,VALID,19.6582,VALID,298,VALID,0.000400641,
2001-05-01, 02:15:00,VALID,917.824,VALID,0,VALID,98.8037,VALID,0.0169808,VALID,19.659,VALID,298,VALID,0.0137747,
2001-05-01, 02:16:00,VALID,917.804,VALID,0,VALID,98.8075,VALID,0.0169808,VALID,19.6455,VALID,298,VALID,0.00280449,
2001-05-01, 02:17:00,VALID,917.808,VALID,0,VALID,98.8062,VALID,0,VALID,19.6393,VALID,298,VALID,0.0968339,
2001-05-01, 02:18:00,VALID,917.813,VALID,0,VALID,98.7986,VALID,-0.0169808,VALID,19.6329,VALID,291,VALID,0.100561,
2001-05-01, 02:19:00,VALID,917.797,VALID,0,VALID,98.8151,VALID,0.0169808,VALID,19.6431,VALID,279,VALID,0,
2001-05-01, 02:20:00,VALID,917.795,VALID,0,VALID,98.8126,VALID,0.0169808,VALID,19.6356,VALID,279,VALID,0,
2001-05-01, 02:21:00,VALID,917.777,VALID,0,VALID,98.8011,VALID,0,VALID,19.6428,VALID,246,VALID,0.0688734,
2001-05-01, 02:22:00,VALID,917.78,VALID,0,VALID,98.8024,VALID,0.0339617,VALID,19.6455,VALID,114,VALID,0.376002,
2001-05-01, 02:23:00,VALID,917.767,VALID,0,VALID,98.7757,VALID,0.0169808,VALID,19.6229,VALID,114,VALID,0.331003,
2001-05-01, 02:24:00,VALID,917.771,VALID,0,VALID,98.7503,VALID,-0.0509425,VALID,19.6115,VALID,114,VALID,0.0649038,
2001-05-01, 02:25:00,VALID,917.77,VALID,0,VALID,98.7477,VALID,-0.0509425,VALID,19.5983,VALID,114,VALID,0,
2001-05-01, 02:26:00,VALID,917.763,VALID,0,VALID,98.7846,VALID,-0.0339617,VALID,19.615,VALID,114,VALID,0,
2001-05-01, 02:27:00,VALID,917.756,VALID,0,VALID,98.7782,VALID,-0.0509425,VALID,19.608,VALID,114,VALID,0,
2001-05-01, 02:28:00,VALID,917.744,VALID,0,VALID,98.7643,VALID,-0.0509425,VALID,19.612,VALID,114,VALID,0,
2001-05-01, 02:29:00,VALID,917.732,VALID,0,VALID,98.7414,VALID,-0.0339617,VALID,19.5988,VALID,114,VALID,0,
2001-05-01, 02:30:00,VALID,917.729,VALID,0,VALID,98.7439,VALID,-0.0849042,VALID,19.5827,VALID,114,VALID,0,
2001-05-01, 02:31:00,VALID,917.733,VALID,0,VALID,98.7719,VALID,-0.0679233,VALID,19.5956,VALID,114,VALID,0,
2001-05-01, 02:32:00,VALID,917.722,VALID,0,VALID,98.7897,VALID,-0.101885,VALID,19.6088,VALID,114,VALID,0,
2001-05-01, 02:33:00,VALID,917.712,VALID,0,VALID,98.81,VALID,-0.0679233,VALID,19.6284,VALID,114,VALID,0,
2001-05-01, 02:34:00,VALID,917.691,VALID,0,VALID,98.796,VALID,-0.0509425,VALID,19.6376,VALID,114,VALID,0.0657051,
2001-05-01, 02:35:00,VALID,917.684,VALID,0,VALID,98.7566,VALID,-0.0509425,VALID,19.6344,VALID,114,VALID,0,
2001-05-01, 02:36:00,VALID,917.665,VALID,0,VALID,98.7261,VALID,-0.0679233,VALID,19.6147,VALID,114,VALID,0.0210337,
2001-05-01, 02:37:00,VALID,917.665,VALID,0,VALID,98.7248,VALID,-0.0509425,VALID,19.6214,VALID,104,VALID,0.245477,
2001-05-01, 02:38:00,VALID,917.656,VALID,0,VALID,98.7274,VALID,-0.0169808,VALID,19.6408,VALID,85,VALID,0.534655,
2001-05-01, 02:39:00,VALID,917.655,VALID,0,VALID,98.7363,VALID,-0.0339617,VALID,19.6567,VALID,83,VALID,0.804688,
2001-05-01, 02:40:00,VALID,917.662,VALID,0,VALID,98.7223,VALID,-0.0679233,VALID,19.6863,VALID,78,VALID,0.497596,
2001-05-01, 02:41:00,VALID,917.667,VALID,0,VALID,98.6918,VALID,-0.0509425,VALID,19.6858,VALID,72,VALID,0.472245,
2001-05-01, 02:42:00,VALID,917.674,VALID,0,VALID,98.7681,VALID,-0.0509425,VALID,19.7472,VALID,87,VALID,0.397436,
2001-05-01, 02:43:00,VALID,917.669,VALID,0,VALID,98.749,VALID,-0.0679233,VALID,19.7633,VALID,91,VALID,0.0051398,
2001-05-01, 02:44:00,VALID,917.665,VALID,0,VALID,98.6803,VALID,-0.0679233,VALID,19.7636,VALID,91,VALID,0,
2001-05-01, 02:45:00,VALID,917.648,VALID,0,VALID,98.6549,VALID,-0.0169808,VALID,19.7569,VALID,91,VALID,0,
2001-05-01, 02:46:00,VALID,917.633,VALID,0,VALID,98.6447,VALID,-0.0849042,VALID,19.7631,VALID,91,VALID,0,
2001-05-01, 02:47:00,VALID,917.612,VALID,0,VALID,98.6346,VALID,-0.0679233,VALID,19.7671,VALID,91,VALID,0,
2001-05-01, 02:48:00,VALID,917.591,VALID,0,VALID,98.6358,VALID,-0.0339617,VALID,19.7765,VALID,91,VALID,0,
2001-05-01, 02:49:00,VALID,917.583,VALID,0,VALID,98.6409,VALID,-0.101885,VALID,19.78,VALID,91,VALID,0,
2001-05-01, 02:50:00,VALID,917.569,VALID,0,VALID,98.6435,VALID,-0.0849042,VALID,19.7867,VALID,91,VALID,0,
2001-05-01, 02:51:00,VALID,917.539,VALID,0,VALID,98.6155,VALID,-0.0849042,VALID,19.7606,VALID,91,VALID,0.00822368,
2001-05-01, 02:52:00,VALID,917.545,VALID,0,VALID,98.5875,VALID,-0.101885,VALID,19.7447,VALID,90,VALID,0.532853,
2001-05-01, 02:53:00,VALID,917.533,VALID,0,VALID,98.6104,VALID,-0.0679233,VALID,19.7348,VALID,89,VALID,0.633635,
2001-05-01, 02:54:00,VALID,917.519,VALID,0,VALID,98.6256,VALID,0.0169808,VALID,19.7273,VALID,93,VALID,0.544671,
2001-05-01, 02:55:00,VALID,917.519,VALID,0,VALID,98.6689,VALID,0,VALID,19.7499,VALID,109,VALID,0.742188,
2001-05-01, 02:56:00,VALID,917.521,VALID,0,VALID,98.6727,VALID,0.0339617,VALID,19.7758,VALID,106,VALID,0.585537,
2001-05-01, 02:57:00,VALID,917.526,VALID,0,VALID,98.618,VALID,0.0169808,VALID,19.775,VALID,105,VALID,0.177837,
2001-05-01, 02:58:00,VALID,917.514,VALID,0,VALID,98.5786,VALID,0.0169808,VALID,19.7723,VALID,105,VALID,0.261218,
2001-05-01, 02:59:00,VALID,917.519,VALID,0,VALID,98.5277,VALID,0.0339617,VALID,19.7691,VALID,102,VALID,0.482113,
2001-05-01, 03:00:00,VALID,917.507,VALID,0,VALID,98.4769,VALID,0.0169808,VALID,19.772,VALID,93,VALID,0.557692,
2001-05-01, 03:01:00,VALID,917.51,VALID,0,VALID,98.5125,VALID,0.0169808,VALID,19.7815,VALID,88,VALID,0.713199,
2001-05-01, 03:02:00,VALID,917.512,VALID,0,VALID,98.4718,VALID,0.0169808,VALID,19.7914,VALID,88,VALID,0.478966,
2001-05-01, 03:03:00,VALID,917.503,VALID,0,VALID,98.3929,VALID,0.0509425,VALID,19.7653,VALID,88,VALID,0.358347,
2001-05-01, 03:04:00,VALID,917.498,VALID,0,VALID,98.3713,VALID,0.0509425,VALID,19.7653,VALID,81,VALID,0.542668,
2001-05-01, 03:05:00,VALID,917.499,VALID,0,VALID,98.4247,VALID,0.0339617,VALID,19.7715,VALID,85,VALID,0.576275,
2001-05-01, 03:06:00,VALID,917.499,VALID,0,VALID,98.4591,VALID,0.0339617,VALID,19.8048,VALID,83,VALID,0.740184,
2001-05-01, 03:07:00,VALID,917.493,VALID,0,VALID,98.4781,VALID,0.0169808,VALID,19.8275,VALID,83,VALID,0.804893,
2001-05-01, 03:08:00,VALID,917.488,VALID,0,VALID,98.4769,VALID,0.0169808,VALID,19.8334,VALID,87,VALID,0.795473,
2001-05-01, 03:09:00,VALID,917.484,VALID,0,VALID,98.4591,VALID,0.0679233,VALID,19.8526,VALID,77,VALID,0.494449,
2001-05-01, 03:10:00,VALID,917.473,VALID,0,VALID,98.4578,VALID,0.0169808,VALID,19.8687,VALID,76,VALID,0.463341,
2001-05-01, 03:11:00,VALID,917.485,VALID,0,VALID,98.4527,VALID,0.0169808,VALID,19.8719,VALID,87,VALID,0.535567,
2001-05-01, 03:12:00,VALID,917.484,VALID,0,VALID,98.412,VALID,0,VALID,19.8789,VALID,85,VALID,0.597356,
2001-05-01, 03:13:00,VALID,917.496,VALID,0,VALID,98.3701,VALID,0.0169808,VALID,19.8727,VALID,91,VALID,0.635074,
2001-05-01, 03:14:00,VALID,917.484,VALID,0,VALID,98.3548,VALID,0,VALID,19.859,VALID,89,VALID,0.700921,
2001-05-01, 03:15:00,VALID,917.487,VALID,0,VALID,98.3561,VALID,0.0169808,VALID,19.8558,VALID,95,VALID,0.750206,
2001-05-01, 03:16:00,VALID,917.496,VALID,0,VALID,98.3459,VALID,0.0339617,VALID,19.8558,VALID,87,VALID,0.711538,
2001-05-01, 03:17:00,VALID,917.499,VALID,0,VALID,98.3179,VALID,0.0339617,VALID,19.8364,VALID,85,VALID,0.540707,
2001-05-01, 03:18:00,VALID,917.491,VALID,0,VALID,98.3713,VALID,0.0509425,VALID,19.8588,VALID,81,VALID,0.460737,
2001-05-01, 03:19:00,VALID,917.493,VALID,0,VALID,98.384,VALID,0.0339617,VALID,19.859,VALID,92,VALID,0.405222,
2001-05-01, 03:20:00,VALID,917.502,VALID,0,VALID,98.3879,VALID,0.0509425,VALID,19.8687,VALID,97,VALID,0.13742,
2001-05-01, 03:21:00,VALID,917.496,VALID,0,VALID,98.454,VALID,0.0169808,VALID,19.8816,VALID,74,VALID,0.391653,
2001-05-01, 03:22:00,VALID,917.484,VALID,0,VALID,98.4502,VALID,0.0169808,VALID,19.8951,VALID,92,VALID,0.100361,
2001-05-01, 03:23:00,VALID,917.483,VALID,0,VALID,98.3993,VALID,0,VALID,19.8687,VALID,96,VALID,0.0594161,
2001-05-01, 03:24:00,VALID,917.49,VALID,0,VALID,98.4133,VALID,-0.0849042,VALID,19.87,VALID,96,VALID,0.0108173,
2001-05-01, 03:25:00,VALID,917.512,VALID,0,VALID,98.4591,VALID,-0.0679233,VALID,19.8928,VALID,96,VALID,0.0526316,
2001-05-01, 03:26:00,VALID,917.514,VALID,0,VALID,98.4858,VALID,-0.0849042,VALID,19.8931,VALID,95,VALID,0.0378606,
2001-05-01, 03:27:00,VALID,917.52,VALID,0,VALID,98.5074,VALID,-0.101885,VALID,19.8826,VALID,76,VALID,0.335115,
2001-05-01, 03:28:00,VALID,917.514,VALID,0,VALID,98.5061,VALID,-0.0849042,VALID,19.87,VALID,76,VALID,0.00480769,
2001-05-01, 03:29:00,VALID,917.525,VALID,0,VALID,98.5188,VALID,-0.101885,VALID,19.8538,VALID,76,VALID,0,
2001-05-01, 03:30:00,VALID,917.534,VALID,0,VALID,98.5557,VALID,-0.0679233,VALID,19.8608,VALID,76,VALID,0,
2001-05-01, 03:31:00,VALID,917.531,VALID,0,VALID,98.5926,VALID,-0.101885,VALID,19.8578,VALID,76,VALID,0,
2001-05-01, 03:32:00,VALID,917.546,VALID,0,VALID,98.632,VALID,-0.0679233,VALID,19.857,VALID,76,VALID,0,
2001-05-01, 03:33:00,VALID,917.573,VALID,0,VALID,98.6651,VALID,-0.0679233,VALID,19.8697,VALID,76,VALID,0,
2001-05-01, 03:34:00,VALID,917.578,VALID,0,VALID,98.6778,VALID,-0.0849042,VALID,19.8697,VALID,76,VALID,0,
2001-05-01, 03:35:00,VALID,917.583,VALID,0,VALID,98.7032,VALID,-0.0339617,VALID,19.8665,VALID,82,VALID,0.0304276,